Home > Weather > Antwerp > Past weeks

Flag for Belgium Weather for the Past 2 Weeks in Antwerp, Belgium

Now
37 °F

Fog.


Feels Like: 33 °F
Forecast: 33 / 42 °F
Wind: 6 mph from North

Location: Antwerp / Deurne

Current Time: Feb 14, 2016 at 3:29:09 AM

Latest Report: Feb 14, 2016 at 2:20 AM


Visibility: 2 mi

Pressure: 29.06 "Hg

Humidity: 87%

Dew point: 34 °F

Location of AntwerpLocation

Historic Weather in Antwerp — Graph

°F

Antwerp Temperature Yesterday

Maximum temperature yesterday: 39 °F (at 2:20 PM)
Minimum temperature yesterday: 27 °F (at 6:50 AM)
Average temperature yesterday: 34 °F

High & Low Weather Summary for the Past Weeks

 TemperatureHumidityPressure
High55 °F (Jan 31, 9:50 PM)93% (Feb 12, 2:50 AM)30.30 "Hg (Feb 12, 2:50 AM)
Low27 °F (Feb 13, 6:50 AM)55% (Feb 6, 11:20 PM)28.91 "Hg (Feb 9, 2:50 PM)
Average44 °F78%29.70 "Hg
* Reported Jan 30 1:20 AM — Feb 14 1:50 AM, Antwerp, Weather by CustomWeather, © 2016

Note: Actual official high and low records may vary slightly from our data, if they occured in-between our weather recording intervals... More about our weather records

Advertising

Antwerp Weather History for the Previous 24 Hours

 ConditionsComfort  
Time TempWeatherWind HumidityBarometerVisibility
1:50 AM
Sun, Feb 14
37 °FFog.5 mph87%29.06 "Hg2 mi
1:20 AM37 °FFog.5 mph87%29.06 "Hg2 mi
12:50 AM37 °FFog.6 mph87%29.06 "Hg2 mi
12:20 AM37 °FFog.6 mph87%29.06 "Hg2 mi
11:50 PM
Sat, Feb 13
37 °FFog.6 mph87%29.03 "Hg2 mi
11:20 PM37 °FFog.7 mph87%29.03 "Hg2 mi
10:50 PM37 °FFog.8 mph87%29.03 "Hg3 mi
9:50 PM37 °FPartly cloudy.9 mph87%29.03 "Hg4 mi
9:20 PM37 °FPartly cloudy.8 mph87%29.03 "Hg4 mi
8:50 PM37 °FFog.9 mph87%29.03 "Hg3 mi
8:20 PM37 °FPartly cloudy.10 mph87%29.03 "Hg2 mi
7:50 PM37 °FPartly cloudy.10 mph87%29.03 "Hg4 mi
7:20 PM37 °FPartly cloudy.10 mph87%29.03 "Hg4 mi
6:50 PM37 °FPartly cloudy.10 mph87%29.03 "Hg2 mi
6:20 PM37 °FPassing clouds.12 mph87%29.03 "Hg2 mi
5:50 PM37 °FDrizzle. Broken clouds.9 mph87%29.03 "Hg2 mi
5:20 PM37 °FLight rain. Broken clouds.12 mph87%29.03 "Hg3 mi
4:50 PM37 °FLight rain. Broken clouds.13 mph87%29.06 "Hg4 mi
4:20 PM37 °FLight rain. Broken clouds.13 mph87%29.06 "Hg4 mi
3:50 PM37 °FLight rain. Partly sunny.12 mph87%29.06 "Hg4 mi
3:20 PM39 °FDrizzle. Partly sunny.12 mph81%29.06 "Hg4 mi
2:50 PM39 °FDrizzle. Partly sunny.12 mph81%29.09 "Hg5 mi
2:20 PM39 °FDrizzle. Broken clouds.10 mph81%29.09 "Hg6 mi
1:50 PM37 °FPartly sunny.10 mph81%29.12 "HgN/A
1:20 PM37 °FPartly sunny.10 mph81%29.12 "HgN/A
12:50 PM37 °FPartly sunny.10 mph81%29.15 "HgN/A
12:20 PM36 °FPartly sunny.8 mph81%29.18 "HgN/A
11:50 AM36 °FPartly sunny.8 mph81%29.18 "HgN/A
11:20 AM34 °FPartly sunny.7 mph87%29.21 "Hg6 mi
10:50 AM34 °FPartly sunny.8 mph81%29.21 "Hg6 mi
10:20 AM32 °FPartly sunny.5 mph87%29.24 "Hg5 mi
9:50 AM32 °FPartly sunny.5 mph87%29.24 "Hg5 mi
9:20 AM30 °FPartly sunny.7 mph86%29.27 "Hg4 mi
8:50 AM30 °FPartly sunny.6 mph86%29.27 "Hg4 mi
8:20 AM27 °FPassing clouds.5 mph86%29.30 "Hg4 mi
7:50 AM28 °FClear.5 mph86%29.30 "Hg4 mi
7:20 AM28 °FClear.3 mph86%29.30 "Hg5 mi
6:50 AM27 °FClear.3 mph86%29.33 "Hg6 mi
6:20 AM28 °FClear.3 mph86%29.33 "Hg10 mi
5:50 AM28 °FClear.3 mph86%29.33 "Hg4 mi
5:20 AM28 °FClear.3 mph86%29.33 "Hg4 mi
4:50 AM28 °FClear.3 mph86%29.33 "Hg5 mi
4:20 AM28 °FClear.2 mph86%29.36 "Hg5 mi
3:50 AM28 °FClear.2 mph86%29.36 "Hg10 mi
3:20 AM30 °FClear.3 mph80%29.36 "Hg6 mi
Weather by CustomWeather, © 2016

See weather overviewHow to use our weather pages